| time (UTC) | temp C | wind direction | speed KPH | gust KPH | rain 1hr cm | rain 24hr cm | rain mn cm | humidity % | barometer mb |
| 20260906113737 | 21 | 98 | 0.0 | 0.0 | 0.00 | 0.13 | 0.13 | 99 | 1015.2 |
| 20260906113237 | 21 | 95 | 0.0 | 0.0 | 0.00 | 0.13 | 0.13 | 99 | 1015.2 |
| 20260906112736 | 21 | 83 | 0.0 | 0.0 | 0.00 | 0.13 | 0.13 | 99 | 1015.1 |
| 20260906112234 | 21 | 110 | 0.0 | 0.0 | 0.00 | 0.13 | 0.13 | 99 | 1015.0 |
| 20260906111733 | 21 | 101 | 0.0 | 0.0 | 0.00 | 0.13 | 0.13 | 99 | 1015.0 |
| 20260906111233 | 21 | 90 | 0.0 | 0.0 | 0.00 | 0.13 | 0.13 | 99 | 1014.9 |
| 20260906110728 | 21 | 89 | 0.0 | 0.0 | 0.00 | 0.13 | 0.13 | 99 | 1015.1 |
| 20260906110224 | 21 | 119 | 0.0 | 0.0 | 0.00 | 0.13 | 0.13 | 99 | 1015.3 |
| 20260906105722 | 22 | 92 | 0.0 | 0.0 | 0.00 | 0.13 | 0.13 | 99 | 1015.0 |
| 20260906105219 | 22 | 91 | 0.0 | 0.0 | 0.00 | 0.13 | 0.13 | 99 | 1015.2 |
| 20260906104719 | 22 | 92 | 0.0 | 0.0 | 0.00 | 0.13 | 0.13 | 99 | 1015.3 |
| 20260906104218 | 22 | 90 | 0.0 | 0.0 | 0.00 | 0.13 | 0.13 | 99 | 1015.1 |
| 20260906103715 | 22 | 74 | 0.0 | 3.2 | 0.00 | 0.13 | 0.13 | 99 | 1015.1 |
| 20260906103210 | 22 | 19 | 3.2 | 3.2 | 0.00 | 0.13 | 0.13 | 99 | 1015.2 |
| 20260906102706 | 22 | 55 | 1.6 | 1.6 | 0.00 | 0.13 | 0.13 | 99 | 1015.4 |
| 20260906102206 | 22 | 76 | 0.0 | 1.6 | 0.00 | 0.13 | 0.13 | 99 | 1015.1 |
| 20260906101706 | 22 | 79 | 1.6 | 1.6 | 0.00 | 0.13 | 0.13 | 99 | 1015.3 |
| 20260906101201 | 22 | 70 | 0.0 | 1.6 | 0.00 | 0.13 | 0.13 | 99 | 1015.5 |
| 20260906100656 | 22 | 89 | 0.0 | 1.6 | 0.00 | 0.13 | 0.13 | 99 | 1015.4 |
| 20260906100156 | 22 | 108 | 0.0 | 1.6 | 0.00 | 0.13 | 0.13 | 99 | 1015.3 |
| 20260906095651 | 22 | 63 | 1.6 | 3.2 | 0.18 | 0.13 | 0.13 | 99 | 1015.3 |
| 20260906095146 | 22 | 118 | 1.6 | 3.2 | 0.18 | 0.13 | 0.13 | 99 | 1015.9 |
| 20260906094645 | 22 | 122 | 1.6 | 1.6 | 0.00 | 0.10 | 0.10 | 99 | 1015.7 |
| 20260906094141 | 22 | 106 | 1.6 | 1.6 | 0.00 | 0.10 | 0.10 | 99 | 1015.5 |
| 20260906093638 | 22 | 86 | 0.0 | 3.2 | 0.00 | 0.10 | 0.10 | 99 | 1015.5 |
| 20260906093137 | 22 | 94 | 0.0 | 0.0 | 0.00 | 0.10 | 0.10 | 99 | 1015.2 |
| 20260906092632 | 22 | 83 | 0.0 | 0.0 | 0.00 | 0.10 | 0.10 | 99 | 1015.5 |
| 20260906092133 | 22 | 58 | 1.6 | 1.6 | 0.00 | 0.10 | 0.10 | 99 | 1015.3 |
| 20260906091629 | 22 | 98 | 0.0 | 1.6 | 0.00 | 0.10 | 0.10 | 99 | 1015.4 |
| 20260906091125 | 22 | 59 | 1.6 | 3.2 | 0.00 | 0.10 | 0.10 | 99 | 1015.6 |
| 20260906090621 | 22 | 97 | 0.0 | 0.0 | 0.00 | 0.10 | 0.10 | 99 | 1015.6 |
| 20260906090120 | 22 | 92 | 0.0 | 0.0 | 0.00 | 0.10 | 0.10 | 99 | 1016.2 |
| 20260906085620 | 22 | 83 | 0.0 | 1.6 | 0.13 | 0.10 | 0.10 | 99 | 1015.8 |
| 20260906085114 | 23 | 109 | 0.0 | 1.6 | 0.00 | 0.08 | 0.08 | 99 | 1015.5 |
| 20260906084609 | 23 | 106 | 1.6 | 1.6 | 0.00 | 0.08 | 0.08 | 99 | 1016.2 |
| 20260906084107 | 23 | 96 | 0.0 | 0.0 | 0.30 | 0.08 | 0.08 | 98 | 1016.4 |
| 20260906083603 | 23 | 126 | 3.2 | 3.2 | 0.48 | 0.08 | 0.08 | 98 | 1015.9 |
| 20260906083103 | 23 | 95 | 0.0 | 0.0 | 0.18 | 0.03 | 0.03 | 97 | 1015.7 |
| 20260906082558 | 23 | 104 | 0.0 | 1.6 | 0.00 | 0.00 | 0.00 | 96 | 1015.3 |
| 20260906082054 | 23 | 94 | 0.0 | 0.0 | 0.00 | 0.00 | 0.00 | 95 | 1015.5 |
| 20260906081550 | 23 | 103 | 1.6 | 1.6 | 0.00 | 0.00 | 0.00 | 94 | 1015.4 |
| 20260906081045 | 23 | 94 | 0.0 | 0.0 | 0.00 | 0.00 | 0.00 | 95 | 1015.5 |
| 20260906080542 | 23 | 49 | 1.6 | 3.2 | 0.00 | 0.00 | 0.00 | 96 | 1015.5 |
| 20260906080038 | 23 | 94 | 3.2 | 3.2 | 0.00 | 0.00 | 0.00 | 95 | 1015.0 |
| 20260906075537 | 23 | 91 | 0.0 | 1.6 | 0.00 | 0.00 | 0.00 | 96 | 1015.3 |
| 20260906075032 | 23 | 47 | 1.6 | 3.2 | 0.00 | 0.00 | 0.00 | 97 | 1015.5 |
| 20260906074527 | 23 | 113 | 3.2 | 3.2 | 0.00 | 0.00 | 0.00 | 97 | 1015.3 |
| 20260906074025 | 23 | 75 | 0.0 | 3.2 | 0.00 | 0.00 | 0.00 | 98 | 1015.3 |
| 20260906073520 | 22 | 129 | 1.6 | 3.2 | 0.00 | 0.00 | 0.00 | 99 | 1015.3 |
| 20260906073016 | 22 | 65 | 0.0 | 3.2 | 0.00 | 0.00 | 0.00 | 99 | 1015.3 |
| 20260906072511 | 22 | 8 | 3.2 | 3.2 | 0.00 | 0.00 | 0.00 | 99 | 1015.0 |
| 20260906072008 | 22 | 40 | 0.0 | 3.2 | 0.00 | 0.00 | 0.00 | 99 | 1014.5 |
| 20260906071503 | 22 | 88 | 0.0 | 0.0 | 0.00 | 0.00 | 0.00 | 99 | 1014.6 |
| 20260906070958 | 22 | 84 | 0.0 | 0.0 | 0.00 | 0.00 | 0.00 | 99 | 1014.8 |
| 20260906070454 | 22 | 75 | 0.0 | 1.6 | 0.00 | 0.00 | 0.00 | 99 | 1014.9 |
| 20260906065950 | 22 | 83 | 0.0 | 0.0 | 0.00 | 0.00 | 0.00 | 99 | 1014.8 |
| 20260906065449 | 22 | 85 | 0.0 | 0.0 | 0.00 | 0.00 | 0.00 | 99 | 1014.9 |
| 20260906064945 | 22 | 82 | 0.0 | 0.0 | 0.00 | 0.00 | 0.00 | 99 | 1014.7 |
| 20260906064441 | 22 | 73 | 1.6 | 1.6 | 0.00 | 0.00 | 0.00 | 99 | 1014.6 |
| 20260906063935 | 22 | 75 | 0.0 | 1.6 | 0.00 | 0.00 | 0.00 | 99 | 1014.7 |
| 20260906063431 | 22 | 83 | 0.0 | 0.0 | 0.00 | 0.00 | 0.00 | 99 | 1014.1 |
| 20260906062926 | 22 | 90 | 0.0 | 0.0 | 0.00 | 0.00 | 0.00 | 99 | 1014.2 |
| 20260906062426 | 22 | 90 | 0.0 | 0.0 | 0.00 | 0.00 | 0.00 | 99 | 1014.1 |
| 20260906061921 | 22 | 91 | 0.0 | 0.0 | 0.00 | 0.00 | 0.00 | 99 | 1014.5 |
| 20260906061418 | 22 | 89 | 0.0 | 0.0 | 0.00 | 0.00 | 0.00 | 99 | 1014.2 |
| 20260906060911 | 22 | 91 | 0.0 | 0.0 | 0.00 | 0.00 | 0.00 | 99 | 1014.1 |
| 20260906060409 | 22 | 91 | 0.0 | 0.0 | 0.00 | 0.00 | 0.00 | 99 | 1014.2 |
| 20260906055905 | 22 | 91 | 0.0 | 0.0 | 0.00 | 0.00 | 0.00 | 99 | 1014.2 |
| 20260906055401 | 22 | 91 | 0.0 | 0.0 | 0.00 | 0.00 | 0.00 | 99 | 1014.3 |
| 20260906054855 | 22 | 89 | 0.0 | 0.0 | 0.00 | 0.00 | 0.00 | 99 | 1014.3 |
| 20260906054350 | 23 | 88 | 0.0 | 0.0 | 0.00 | 0.00 | 0.00 | 99 | 1014.1 |
| 20260906053847 | 23 | 83 | 0.0 | 0.0 | 0.00 | 0.00 | 0.00 | 99 | 1014.3 |
| 20260906053342 | 22 | 90 | 0.0 | 0.0 | 0.00 | 0.00 | 0.00 | 99 | 1014.2 |
| 20260906052838 | 22 | 90 | 0.0 | 0.0 | 0.00 | 0.00 | 0.00 | 99 | 1014.3 |
| 20260906052334 | 23 | 89 | 0.0 | 0.0 | 0.00 | 0.00 | 0.00 | 99 | 1014.4 |
| 20260906051831 | 23 | 92 | 0.0 | 0.0 | 0.00 | 0.00 | 0.00 | 99 | 1014.5 |
| 20260906051330 | 23 | 89 | 0.0 | 0.0 | 0.00 | 0.00 | 0.00 | 99 | 1014.7 |
| 20260906050826 | 23 | 75 | 0.0 | 0.0 | 0.00 | 0.00 | 0.00 | 99 | 1014.5 |
| 20260906050321 | 23 | 79 | 0.0 | 0.0 | 0.00 | 0.00 | 0.00 | 99 | 1014.8 |
| 20260906045819 | 23 | 89 | 0.0 | 0.0 | 0.00 | 0.00 | 0.00 | 99 | 1014.5 |
| 20260906045314 | 23 | 88 | 0.0 | 0.0 | 0.00 | 0.00 | 0.00 | 99 | 1014.8 |
| 20260906044811 | 23 | 90 | 0.0 | 0.0 | 0.00 | 0.00 | 0.00 | 99 | 1014.7 |
| 20260906044305 | 23 | 91 | 0.0 | 0.0 | 0.00 | 0.00 | 0.00 | 99 | 1014.6 |
| 20260906043801 | 23 | 90 | 0.0 | 0.0 | 0.00 | 0.00 | 0.00 | 99 | 1014.6 |
| 20260906043257 | 23 | 90 | 0.0 | 0.0 | 0.00 | 0.00 | 0.00 | 99 | 1014.7 |
| 20260906042756 | 23 | 94 | 0.0 | 0.0 | 0.00 | 0.00 | 0.00 | 99 | 1014.8 |
| 20260906042256 | 23 | 92 | 0.0 | 0.0 | 0.00 | 0.00 | 0.00 | 99 | 1014.8 |
| 20260906041751 | 23 | 87 | 0.0 | 0.0 | 0.00 | 0.00 | 0.00 | 99 | 1014.6 |
| 20260906041246 | 23 | 90 | 0.0 | 0.0 | 0.00 | 0.00 | 0.00 | 99 | 1014.6 |
| 20260906040741 | 23 | 90 | 0.0 | 0.0 | 0.00 | 0.00 | 0.00 | 99 | 1014.5 |
| 20260906040237 | 23 | 89 | 0.0 | 0.0 | 0.00 | 0.00 | 0.00 | 99 | 1014.9 |
| 20260906035732 | 23 | 88 | 0.0 | 0.0 | 0.00 | 0.00 | 0.00 | 99 | 1014.8 |
| 20260906035228 | 23 | 90 | 0.0 | 0.0 | 0.00 | 0.00 | 0.00 | 99 | 1014.9 |
| 20260906034727 | 23 | 91 | 0.0 | 0.0 | 0.00 | 0.00 | 0.00 | 99 | 1014.8 |
| 20260906034223 | 23 | 90 | 0.0 | 0.0 | 0.00 | 0.00 | 0.00 | 99 | 1014.5 |
| 20260906033718 | 23 | 93 | 0.0 | 0.0 | 0.00 | 0.00 | 0.00 | 99 | 1014.5 |
| 20260906033212 | 23 | 94 | 0.0 | 0.0 | 0.00 | 0.00 | 0.00 | 98 | 1014.5 |
| 20260906032709 | 23 | 87 | 0.0 | 0.0 | 0.00 | 0.00 | 0.00 | 98 | 1014.5 |
| 20260906032209 | 23 | 87 | 0.0 | 0.0 | 0.00 | 0.00 | 0.00 | 98 | 1014.4 |
| 20260906031704 | 23 | 84 | 0.0 | 0.0 | 0.00 | 0.00 | 0.00 | 98 | 1014.6 |
| 20260906031159 | 23 | 90 | 0.0 | 0.0 | 0.00 | 0.00 | 0.00 | 98 | 1014.6 |
| 20260906030700 | 23 | 90 | 0.0 | 0.0 | 0.00 | 0.00 | 0.00 | 98 | 1014.4 |
| 20260906030155 | 23 | 90 | 0.0 | 0.0 | 0.00 | 0.00 | 0.00 | 98 | 1014.5 |
| 20260906025654 | 23 | 90 | 0.0 | 0.0 | 0.00 | 0.00 | 0.00 | 98 | 1014.4 |
| 20260906025153 | 23 | 90 | 0.0 | 0.0 | 0.00 | 0.00 | 0.00 | 98 | 1014.2 |
| 20260906024648 | 23 | 90 | 0.0 | 0.0 | 0.00 | 0.00 | 0.00 | 97 | 1014.4 |
| 20260906024147 | 24 | 90 | 0.0 | 0.0 | 0.00 | 0.00 | 0.00 | 97 | 1014.0 |
| 20260906023643 | 24 | 88 | 0.0 | 0.0 | 0.00 | 0.00 | 0.00 | 97 | 1014.1 |
| 20260906023143 | 24 | 87 | 0.0 | 0.0 | 0.00 | 0.00 | 0.00 | 97 | 1014.0 |
| 20260906022638 | 24 | 88 | 0.0 | 0.0 | 0.00 | 0.00 | 0.00 | 97 | 1014.1 |
| 20260906022135 | 24 | 88 | 0.0 | 0.0 | 0.00 | 0.00 | 0.00 | 97 | 1014.1 |
| 20260906021630 | 24 | 87 | 0.0 | 0.0 | 0.00 | 0.00 | 0.00 | 96 | 1014.0 |
| 20260906021128 | 24 | 87 | 0.0 | 0.0 | 0.00 | 0.00 | 0.00 | 96 | 1013.8 |
| 20260906020628 | 24 | 86 | 0.0 | 0.0 | 0.00 | 0.00 | 0.00 | 96 | 1013.8 |
| 20260906020123 | 24 | 93 | 0.0 | 0.0 | 0.00 | 0.00 | 0.00 | 96 | 1013.7 |
| 20260906015619 | 25 | 86 | 0.0 | 0.0 | 0.00 | 0.00 | 0.00 | 96 | 1013.9 |
| 20260906015117 | 25 | 63 | 0.0 | 0.0 | 0.00 | 0.00 | 0.00 | 96 | 1013.7 |
| 20260906014612 | 25 | 61 | 0.0 | 0.0 | 0.00 | 0.00 | 0.00 | 95 | 1013.9 |
| 20260906014109 | 25 | 60 | 0.0 | 0.0 | 0.00 | 0.00 | 0.00 | 95 | 1013.6 |
| 20260906013603 | 25 | 60 | 0.0 | 0.0 | 0.00 | 0.00 | 0.00 | 95 | 1013.7 |
| 20260906013058 | 25 | 60 | 0.0 | 0.0 | 0.00 | 0.00 | 0.00 | 95 | 1013.7 |
| 20260906012553 | 25 | 60 | 0.0 | 0.0 | 0.00 | 0.00 | 0.00 | 95 | 1013.6 |
| 20260906012053 | 25 | 59 | 0.0 | 0.0 | 0.00 | 0.00 | 0.00 | 94 | 1013.7 |
| 20260906011549 | 25 | 59 | 0.0 | 0.0 | 0.00 | 0.00 | 0.00 | 94 | 1013.6 |
| 20260906011048 | 25 | 59 | 0.0 | 0.0 | 0.00 | 0.00 | 0.00 | 94 | 1013.5 |
| 20260906010544 | 25 | 59 | 0.0 | 0.0 | 0.00 | 0.00 | 0.00 | 94 | 1013.6 |
| 20260906010040 | 26 | 59 | 0.0 | 0.0 | 0.00 | 0.00 | 0.00 | 93 | 1013.4 |
| 20260906005539 | 26 | 59 | 0.0 | 0.0 | 0.00 | 0.00 | 0.00 | 93 | 1013.5 |
| 20260906005039 | 26 | 59 | 0.0 | 0.0 | 0.00 | 0.00 | 0.00 | 93 | 1013.3 |
| 20260906004538 | 26 | 59 | 0.0 | 0.0 | 0.00 | 0.00 | 0.00 | 92 | 1013.4 |
| 20260906004033 | 26 | 59 | 0.0 | 0.0 | 0.00 | 0.00 | 0.00 | 92 | 1013.3 |
| 20260906003529 | 26 | 59 | 0.0 | 0.0 | 0.00 | 0.00 | 0.00 | 92 | 1013.2 |
| 20260906003025 | 26 | 59 | 0.0 | 0.0 | 0.00 | 0.00 | 0.00 | 91 | 1013.3 |
| 20260906002525 | 26 | 59 | 0.0 | 0.0 | 0.00 | 0.00 | 0.00 | 91 | 1013.3 |
| 20260906002019 | 27 | 59 | 0.0 | 0.0 | 0.00 | 0.00 | 0.00 | 91 | 1013.3 |
| 20260906001515 | 27 | 59 | 0.0 | 0.0 | 0.00 | 0.00 | 0.00 | 90 | 1013.2 |
| 20260906001009 | 27 | 59 | 0.0 | 0.0 | 0.00 | 0.00 | 0.00 | 89 | 1013.3 |
| 20260906000506 | 27 | 59 | 0.0 | 0.0 | 0.00 | 0.00 | 0.00 | 89 | 1013.3 |
| 20260906000000 | 27 | 59 | 0.0 | 0.0 | 0.00 | 0.00 | 0.00 | 88 | 1013.5 |
| 20260905235459 | 28 | 59 | 0.0 | 0.0 | 0.00 | 0.00 | 0.00 | 87 | 1013.5 |
| 20260905234955 | 28 | 59 | 0.0 | 0.0 | 0.00 | 0.00 | 0.00 | 87 | 1013.5 |
| 20260905234451 | 28 | 59 | 0.0 | 0.0 | 0.00 | 0.00 | 0.00 | 86 | 1013.5 |
| 20260905233950 | 28 | 59 | 0.0 | 0.0 | 0.00 | 0.00 | 0.00 | 85 | 1013.3 |
| 20260905233446 | 28 | 59 | 0.0 | 0.0 | 0.00 | 0.00 | 0.00 | 84 | 1013.5 |
| 20260905232944 | 28 | 59 | 0.0 | 0.0 | 0.00 | 0.00 | 0.00 | 83 | 1013.4 |
| 20260905232441 | 29 | 59 | 0.0 | 0.0 | 0.00 | 0.00 | 0.00 | 82 | 1013.3 |
| 20260905231936 | 30 | 59 | 0.0 | 0.0 | 0.00 | 0.00 | 0.00 | 79 | 1013.3 |
| 20260905231432 | 30 | 59 | 0.0 | 0.0 | 0.00 | 0.00 | 0.00 | 79 | 1013.5 |
| 20260905230928 | 30 | 59 | 0.0 | 0.0 | 0.00 | 0.00 | 0.00 | 77 | 1013.2 |
| 20260905230426 | 30 | 59 | 0.0 | 0.0 | 0.00 | 0.00 | 0.00 | 76 | 1013.5 |
| 20260905225925 | 30 | 59 | 0.0 | 0.0 | 0.00 | 0.00 | 0.00 | 76 | 1013.1 |
| 20260905225420 | 31 | 59 | 0.0 | 0.0 | 0.00 | 0.00 | 0.00 | 74 | 1013.3 |
| 20260905224915 | 31 | 59 | 0.0 | 0.0 | 0.00 | 0.00 | 0.00 | 72 | 1013.3 |
| 20260905224411 | 31 | 59 | 0.0 | 0.0 | 0.00 | 0.00 | 0.00 | 72 | 1013.1 |
| 20260905223905 | 32 | 59 | 0.0 | 0.0 | 0.00 | 0.00 | 0.00 | 69 | 1013.2 |
| 20260905223403 | 32 | 59 | 0.0 | 0.0 | 0.00 | 0.00 | 0.00 | 68 | 1013.2 |
| 20260905222903 | 33 | 59 | 0.0 | 0.0 | 0.00 | 0.00 | 0.00 | 67 | 1013.3 |
| 20260905222402 | 33 | 60 | 0.0 | 1.6 | 0.00 | 0.00 | 0.00 | 65 | 1013.3 |
| 20260905221858 | 33 | 60 | 0.0 | 3.2 | 0.00 | 0.00 | 0.00 | 65 | 1013.1 |
| 20260905221355 | 33 | 60 | 0.0 | 1.6 | 0.00 | 0.00 | 0.00 | 69 | 1013.3 |
| 20260905220850 | 33 | 59 | 0.0 | 1.6 | 0.00 | 0.00 | 0.00 | 64 | 1013.3 |
| 20260905220346 | 33 | 62 | 0.0 | 1.6 | 0.00 | 0.00 | 0.00 | 65 | 1013.3 |
| 20260905215845 | 33 | 63 | 1.6 | 1.6 | 0.00 | 0.00 | 0.00 | 63 | 1013.3 |
| 20260905215342 | 34 | 62 | 0.0 | 0.0 | 0.00 | 0.00 | 0.00 | 62 | 1013.3 |
| 20260905214838 | 35 | 62 | 0.0 | 0.0 | 0.00 | 0.00 | 0.00 | 64 | 1013.3 |
| 20260905214332 | 33 | 61 | 0.0 | 1.6 | 0.00 | 0.00 | 0.00 | 62 | 1013.3 |
| 20260905213827 | 33 | 61 | 0.0 | 1.6 | 0.00 | 0.00 | 0.00 | 63 | 1013.5 |
| 20260905213323 | 33 | 60 | 1.6 | 1.6 | 0.00 | 0.00 | 0.00 | 63 | 1013.4 |
| 20260905212818 | 33 | 60 | 0.0 | 1.6 | 0.00 | 0.00 | 0.00 | 63 | 1013.5 |
| 20260905212318 | 35 | 60 | 0.0 | 0.0 | 0.00 | 0.00 | 0.00 | 56 | 1013.5 |
| 20260905211818 | 34 | 59 | 0.0 | 0.0 | 0.00 | 0.00 | 0.00 | 60 | 1013.6 |
| 20260905211313 | 35 | 58 | 0.0 | 1.6 | 0.00 | 0.00 | 0.00 | 60 | 1013.5 |
| 20260905210810 | 35 | 95 | 0.0 | 0.0 | 0.00 | 0.00 | 0.00 | 48 | 1013.5 |
| 20260905210309 | 36 | 72 | 0.0 | 3.2 | 0.00 | 0.00 | 0.00 | 50 | 1013.6 |
| 20260905205808 | 36 | 87 | 0.0 | 1.6 | 0.00 | 0.00 | 0.00 | 47 | 1013.6 |
| 20260905205306 | 37 | 69 | 1.6 | 1.6 | 0.00 | 0.00 | 0.00 | 46 | 1013.5 |
| 20260905204802 | 36 | 82 | 0.0 | 1.6 | 0.00 | 0.00 | 0.00 | 47 | 1013.7 |
| 20260905204259 | 36 | 93 | 0.0 | 1.6 | 0.00 | 0.00 | 0.00 | 46 | 1013.7 |
| 20260905203757 | 36 | 354 | 3.2 | 3.2 | 0.00 | 0.00 | 0.00 | 53 | 1013.7 |
| 20260905203253 | 36 | 67 | 1.6 | 3.2 | 0.00 | 0.00 | 0.00 | 49 | 1013.9 |
| 20260905202749 | 36 | 45 | 1.6 | 3.2 | 0.00 | 0.00 | 0.00 | 50 | 1014.0 |
| 20260905202244 | 35 | 72 | 0.0 | 4.8 | 0.00 | 0.00 | 0.00 | 50 | 1013.9 |
| 20260905201739 | 36 | 80 | 0.0 | 3.2 | 0.00 | 0.00 | 0.00 | 50 | 1014.0 |
| 20260905201234 | 36 | 64 | 0.0 | 1.6 | 0.00 | 0.00 | 0.00 | 51 | 1013.9 |
| 20260905200729 | 36 | 64 | 1.6 | 1.6 | 0.00 | 0.00 | 0.00 | 51 | 1014.1 |
| 20260905200225 | 36 | 123 | 1.6 | 3.2 | 0.00 | 0.00 | 0.00 | 51 | 1014.1 |
| 20260905195724 | 36 | 5 | 3.2 | 3.2 | 0.00 | 0.00 | 0.00 | 52 | 1014.4 |
| 20260905195224 | 36 | 95 | 1.6 | 1.6 | 0.00 | 0.00 | 0.00 | 51 | 1014.4 |
| 20260905194720 | 36 | 100 | 0.0 | 3.2 | 0.00 | 0.00 | 0.00 | 53 | 1014.5 |
| 20260905194220 | 36 | 55 | 1.6 | 3.2 | 0.00 | 0.00 | 0.00 | 49 | 1014.3 |
| 20260905193719 | 36 | 138 | 3.2 | 3.2 | 0.00 | 0.00 | 0.00 | 49 | 1014.4 |
| 20260905193214 | 36 | 50 | 1.6 | 3.2 | 0.00 | 0.00 | 0.00 | 53 | 1014.7 |
| 20260905192710 | 36 | 81 | 0.0 | 1.6 | 0.00 | 0.00 | 0.00 | 51 | 1014.7 |
| 20260905192206 | 36 | 49 | 0.0 | 3.2 | 0.00 | 0.00 | 0.00 | 50 | 1014.8 |
| 20260905191705 | 36 | 11 | 3.2 | 3.2 | 0.00 | 0.00 | 0.00 | 53 | 1014.8 |
| 20260905191203 | 36 | 57 | 4.8 | 4.8 | 0.00 | 0.00 | 0.00 | 51 | 1015.3 |
| 20260905190702 | 36 | 70 | 0.0 | 1.6 | 0.00 | 0.00 | 0.00 | 51 | 1015.2 |
| 20260905190201 | 36 | 62 | 0.0 | 3.2 | 0.00 | 0.00 | 0.00 | 51 | 1015.4 |
| 20260905185700 | 36 | 323 | 4.8 | 4.8 | 0.00 | 0.00 | 0.00 | 52 | 1015.3 |
| 20260905185156 | 36 | 42 | 1.6 | 3.2 | 0.00 | 0.00 | 0.00 | 53 | 1015.4 |
| 20260905184655 | 35 | 73 | 0.0 | 3.2 | 0.00 | 0.00 | 0.00 | 55 | 1015.5 |
| 20260905184154 | 35 | 73 | 0.0 | 1.6 | 0.00 | 0.00 | 0.00 | 54 | 1015.3 |
| 20260905183654 | 35 | 60 | 1.6 | 3.2 | 0.00 | 0.00 | 0.00 | 55 | 1015.5 |
| 20260905183148 | 36 | 344 | 3.2 | 8.0 | 0.00 | 0.00 | 0.00 | 53 | 1015.8 |
| 20260905182648 | 36 | 358 | 3.2 | 4.8 | 0.00 | 0.00 | 0.00 | 54 | 1015.6 |
| 20260905182148 | 36 | 18 | 1.6 | 3.2 | 0.00 | 0.00 | 0.00 | 52 | 1015.7 |
| 20260905181643 | 35 | 66 | 1.6 | 1.6 | 0.00 | 0.00 | 0.00 | 54 | 1016.1 |
| 20260905181142 | 35 | 63 | 0.0 | 3.2 | 0.00 | 0.00 | 0.00 | 56 | 1015.8 |
| 20260905180637 | 35 | 53 | 1.6 | 3.2 | 0.00 | 0.00 | 0.00 | 56 | 1016.1 |
| 20260905180132 | 36 | 9 | 4.8 | 8.0 | 0.00 | 0.00 | 0.00 | 54 | 1016.1 |
| 20260905175632 | 36 | 77 | 3.2 | 4.8 | 0.00 | 0.00 | 0.00 | 53 | 1016.2 |
| 20260905175127 | 35 | 20 | 1.6 | 1.6 | 0.00 | 0.00 | 0.00 | 56 | 1015.9 |
| 20260905174623 | 35 | 64 | 0.0 | 3.2 | 0.00 | 0.00 | 0.00 | 56 | 1016.1 |
| 20260905174118 | 35 | 61 | 1.6 | 1.6 | 0.00 | 0.00 | 0.00 | 56 | 1016.3 |
| 20260905173614 | 35 | 51 | 1.6 | 3.2 | 0.00 | 0.00 | 0.00 | 56 | 1015.7 |
| 20260905173109 | 35 | 60 | 0.0 | 3.2 | 0.00 | 0.00 | 0.00 | 56 | 1015.9 |
| 20260905172608 | 35 | 71 | 0.0 | 0.0 | 0.00 | 0.00 | 0.00 | 57 | 1015.9 |
| 20260905172103 | 33 | 67 | 3.2 | 3.2 | 0.00 | 0.00 | 0.00 | 60 | 1016.2 |
| 20260905171600 | 34 | 53 | 0.0 | 3.2 | 0.00 | 0.00 | 0.00 | 59 | 1016.3 |
| 20260905171056 | 35 | 64 | 1.6 | 1.6 | 0.00 | 0.00 | 0.00 | 59 | 1016.4 |
| 20260905170552 | 35 | 64 | 1.6 | 1.6 | 0.00 | 0.00 | 0.00 | 60 | 1016.5 |
| 20260905170047 | 33 | 57 | 1.6 | 3.2 | 0.00 | 0.00 | 0.00 | 62 | 1016.6 |
| 20260905165542 | 33 | 63 | 1.6 | 3.2 | 0.00 | 0.00 | 0.00 | 59 | 1016.5 |
| 20260905165037 | 33 | 51 | 1.6 | 3.2 | 0.00 | 0.00 | 0.00 | 63 | 1016.5 |
| 20260905164537 | 33 | 62 | 1.6 | 3.2 | 0.00 | 0.00 | 0.00 | 61 | 1016.7 |
| 20260905164032 | 33 | 47 | 1.6 | 1.6 | 0.00 | 0.00 | 0.00 | 64 | 1016.8 |
| 20260905163528 | 33 | 63 | 3.2 | 3.2 | 0.00 | 0.00 | 0.00 | 61 | 1016.9 |
| 20260905163024 | 33 | 60 | 1.6 | 3.2 | 0.00 | 0.00 | 0.00 | 63 | 1016.8 |
| 20260905162520 | 33 | 60 | 0.0 | 1.6 | 0.00 | 0.00 | 0.00 | 64 | 1016.8 |
| 20260905162014 | 32 | 50 | 1.6 | 3.2 | 0.00 | 0.00 | 0.00 | 70 | 1017.0 |
| 20260905161514 | 32 | 54 | 1.6 | 1.6 | 0.00 | 0.00 | 0.00 | 66 | 1016.8 |
| 20260905161012 | 33 | 51 | 1.6 | 3.2 | 0.00 | 0.00 | 0.00 | 67 | 1017.2 |
| 20260905160506 | 34 | 62 | 0.0 | 1.6 | 0.00 | 0.00 | 0.00 | 66 | 1017.0 |
| 20260905160006 | 33 | 62 | 1.6 | 1.6 | 0.00 | 0.00 | 0.00 | 64 | 1017.1 |
| 20260905155505 | 32 | 61 | 1.6 | 3.2 | 0.00 | 0.00 | 0.00 | 65 | 1017.0 |
| 20260905155004 | 32 | 55 | 1.6 | 1.6 | 0.00 | 0.00 | 0.00 | 69 | 1017.0 |
| 20260905154459 | 33 | 56 | 1.6 | 1.6 | 0.00 | 0.00 | 0.00 | 66 | 1017.0 |
| 20260905153955 | 32 | 64 | 1.6 | 3.2 | 0.00 | 0.00 | 0.00 | 67 | 1017.1 |
| 20260905153451 | 32 | 72 | 0.0 | 1.6 | 0.00 | 0.00 | 0.00 | 74 | 1017.1 |
| 20260905152950 | 32 | 72 | 0.0 | 1.6 | 0.00 | 0.00 | 0.00 | 74 | 1017.1 |
| 20260905152450 | 32 | 74 | 0.0 | 1.6 | 0.00 | 0.00 | 0.00 | 76 | 1017.1 |
| 20260905151945 | 32 | 72 | 0.0 | 1.6 | 0.00 | 0.00 | 0.00 | 76 | 1017.0 |
| 20260905151441 | 31 | 85 | 0.0 | 0.0 | 0.00 | 0.00 | 0.00 | 79 | 1017.2 |
| 20260905150936 | 30 | 86 | 0.0 | 0.0 | 0.00 | 0.00 | 0.00 | 77 | 1017.2 |
| 20260905150436 | 31 | 80 | 0.0 | 0.0 | 0.00 | 0.00 | 0.00 | 81 | 1017.2 |
| 20260905145932 | 30 | 80 | 0.0 | 0.0 | 0.00 | 0.00 | 0.00 | 81 | 1017.1 |
| 20260905145427 | 31 | 77 | 0.0 | 0.0 | 0.00 | 0.00 | 0.00 | 79 | 1017.4 |
| 20260905144926 | 30 | 85 | 0.0 | 0.0 | 0.00 | 0.00 | 0.00 | 75 | 1017.2 |
| 20260905144422 | 30 | 83 | 0.0 | 0.0 | 0.00 | 0.00 | 0.00 | 77 | 1017.2 |
| 20260905143921 | 29 | 83 | 0.0 | 0.0 | 0.00 | 0.00 | 0.00 | 83 | 1017.1 |
| 20260905143415 | 29 | 81 | 0.0 | 0.0 | 0.00 | 0.00 | 0.00 | 82 | 1017.3 |
| 20260905142914 | 27 | 90 | 0.0 | 0.0 | 0.00 | 0.00 | 0.00 | 81 | 1017.4 |
| 20260905142413 | 27 | 85 | 0.0 | 0.0 | 0.00 | 0.00 | 0.00 | 89 | 1017.4 |
| 20260905141909 | 27 | 88 | 0.0 | 0.0 | 0.00 | 0.00 | 0.00 | 86 | 1017.2 |
| 20260905141404 | 26 | 96 | 0.0 | 0.0 | 0.00 | 0.00 | 0.00 | 89 | 1017.5 |
| 20260905140900 | 26 | 84 | 0.0 | 0.0 | 0.00 | 0.00 | 0.00 | 92 | 1017.3 |
| 20260905140355 | 26 | 86 | 0.0 | 0.0 | 0.00 | 0.00 | 0.00 | 93 | 1017.2 |
| 20260905135854 | 25 | 88 | 0.0 | 0.0 | 0.00 | 0.00 | 0.00 | 93 | 1017.5 |
| 20260905135350 | 25 | 83 | 0.0 | 0.0 | 0.00 | 0.00 | 0.00 | 95 | 1017.3 |
| 20260905134845 | 24 | 85 | 0.0 | 0.0 | 0.00 | 0.00 | 0.00 | 98 | 1017.7 |
| 20260905134343 | 24 | 85 | 0.0 | 0.0 | 0.00 | 0.00 | 0.00 | 99 | 1017.5 |
| 20260905133838 | 23 | 85 | 0.0 | 0.0 | 0.00 | 0.00 | 0.00 | 99 | 1017.5 |
| 20260905133334 | 23 | 85 | 0.0 | 0.0 | 0.00 | 0.00 | 0.00 | 99 | 1017.3 |
| 20260905132833 | 23 | 85 | 0.0 | 0.0 | 0.00 | 0.00 | 0.00 | 99 | 1017.6 |
| 20260905132329 | 23 | 85 | 0.0 | 0.0 | 0.00 | 0.00 | 0.00 | 99 | 1017.4 |
| 20260905131828 | 23 | 85 | 0.0 | 0.0 | 0.00 | 0.00 | 0.00 | 99 | 1017.7 |
| 20260905131324 | 23 | 83 | 0.0 | 0.0 | 0.00 | 0.00 | 0.00 | 99 | 1017.6 |
| 20260905130819 | 22 | 90 | 0.0 | 0.0 | 0.00 | 0.00 | 0.00 | 99 | 1017.6 |
| 20260905130318 | 22 | 90 | 0.0 | 0.0 | 0.00 | 0.00 | 0.00 | 99 | 1017.8 |
| 20260905125813 | 22 | 91 | 0.0 | 0.0 | 0.00 | 0.00 | 0.00 | 99 | 1017.5 |
| 20260905125308 | 22 | 91 | 0.0 | 0.0 | 0.00 | 0.00 | 0.00 | 99 | 1017.5 |
| 20260905124804 | 22 | 85 | 0.0 | 0.0 | 0.00 | 0.00 | 0.00 | 99 | 1017.7 |
| 20260905124300 | 22 | 85 | 0.0 | 0.0 | 0.00 | 0.00 | 0.00 | 99 | 1017.3 |
| 20260905123755 | 22 | 86 | 0.0 | 0.0 | 0.00 | 0.00 | 0.00 | 99 | 1017.4 |
| 20260905123252 | 22 | 85 | 0.0 | 0.0 | 0.00 | 0.00 | 0.00 | 99 | 1017.3 |
| 20260905122752 | 22 | 85 | 0.0 | 0.0 | 0.00 | 0.00 | 0.00 | 99 | 1017.5 |
| 20260905122251 | 22 | 92 | 0.0 | 0.0 | 0.00 | 0.00 | 0.00 | 99 | 1017.3 |
| 20260905121746 | 22 | 93 | 0.0 | 0.0 | 0.00 | 0.00 | 0.00 | 99 | 1017.1 |
| 20260905121243 | 22 | 94 | 0.0 | 0.0 | 0.00 | 0.00 | 0.00 | 99 | 1017.1 |
| 20260905120741 | 22 | 89 | 0.0 | 0.0 | 0.00 | 0.00 | 0.00 | 99 | 1017.4 |
| 20260905120236 | 22 | 89 | 0.0 | 0.0 | 0.00 | 0.00 | 0.00 | 99 | 1017.0 |
| 20260905115732 | 21 | 89 | 0.0 | 0.0 | 0.00 | 0.00 | 0.00 | 99 | 1016.9 |
| 20260905115231 | 21 | 94 | 0.0 | 0.0 | 0.00 | 0.00 | 0.00 | 99 | 1016.9 |
| 20260905114726 | 21 | 89 | 0.0 | 0.0 | 0.00 | 0.00 | 0.00 | 99 | 1016.9 |
| 20260905114224 | 21 | 91 | 0.0 | 0.0 | 0.00 | 0.00 | 0.00 | 99 | 1016.7 |